TimeCDT,TemperatureF,Dew PointF,Humidity,Sea Level PressureIn,VisibilityMPH,Wind Direction,Wind SpeedMPH,Gust SpeedMPH,PrecipitationIn,Events,Conditions,WindDirDegrees,DateUTC
12:15 AM,80.6,68.0,65,29.86,10.0,Calm,Calm,-,N/A,,Clear,0,2012-06-26 05:15:00
12:35 AM,80.6,68.0,65,29.86,10.0,East,3.5,-,N/A,,Clear,80,2012-06-26 05:35:00
12:55 AM,82.4,68.0,62,29.86,10.0,East,3.5,-,N/A,,Clear,80,2012-06-26 05:55:00
1:15 AM,82.4,66.2,58,29.86,10.0,East,3.5,-,N/A,,Clear,100,2012-06-26 06:15:00
1:35 AM,82.4,66.2,58,29.85,10.0,East,4.6,-,N/A,,Clear,90,2012-06-26 06:35:00
1:55 AM,84.2,68.0,58,29.85,10.0,East,8.1,-,N/A,,Clear,90,2012-06-26 06:55:00
2:15 AM,84.2,68.0,58,29.86,10.0,East,8.1,-,N/A,,Clear,90,2012-06-26 07:15:00
2:35 AM,82.4,68.0,62,29.85,10.0,East,8.1,-,N/A,,Clear,90,2012-06-26 07:35:00
2:55 AM,82.4,68.0,62,29.86,10.0,East,8.1,-,N/A,,Clear,80,2012-06-26 07:55:00
3:15 AM,82.4,69.8,66,29.86,10.0,East,6.9,-,N/A,,Clear,90,2012-06-26 08:15:00
3:35 AM,82.4,69.8,66,29.86,10.0,East,6.9,-,N/A,,Clear,90,2012-06-26 08:35:00
3:55 AM,80.6,69.8,70,29.87,10.0,East,9.2,-,N/A,,Clear,100,2012-06-26 08:55:00
4:15 AM,80.6,69.8,70,29.87,10.0,East,8.1,-,N/A,,Clear,90,2012-06-26 09:15:00
4:35 AM,80.6,69.8,70,29.87,10.0,East,6.9,-,N/A,,Clear,100,2012-06-26 09:35:00
4:55 AM,80.6,69.8,70,29.87,10.0,East,9.2,-,N/A,,Clear,100,2012-06-26 09:55:00
5:15 AM,80.6,66.2,61,29.87,10.0,ESE,9.2,-,N/A,,Clear,110,2012-06-26 10:15:00
5:35 AM,80.6,66.2,61,29.88,10.0,East,9.2,-,N/A,,Clear,100,2012-06-26 10:35:00
5:55 AM,80.6,66.2,61,29.88,10.0,ESE,9.2,-,N/A,,Clear,110,2012-06-26 10:55:00
6:15 AM,80.6,66.2,61,29.89,10.0,ESE,10.4,-,N/A,,Clear,110,2012-06-26 11:15:00
6:35 AM,78.8,64.4,61,29.89,10.0,ESE,9.2,-,N/A,,Clear,110,2012-06-26 11:35:00
6:55 AM,78.8,64.4,61,29.90,10.0,ESE,6.9,-,N/A,,Clear,110,2012-06-26 11:55:00
7:15 AM,80.6,66.2,61,29.90,10.0,ESE,10.4,-,N/A,,Clear,110,2012-06-26 12:15:00
7:35 AM,80.6,64.4,58,29.91,10.0,ESE,12.7,-,N/A,,Clear,120,2012-06-26 12:35:00
7:55 AM,80.6,64.4,58,29.91,10.0,ESE,10.4,-,N/A,,Clear,120,2012-06-26 12:55:00
8:15 AM,80.6,66.2,61,29.91,10.0,SE,10.4,16.1,N/A,,Clear,130,2012-06-26 13:15:00
8:35 AM,82.4,66.2,58,29.91,10.0,ESE,8.1,-,N/A,,Clear,120,2012-06-26 13:35:00
8:55 AM,82.4,66.2,58,29.92,10.0,SE,10.4,-,N/A,,Clear,130,2012-06-26 13:55:00
9:15 AM,84.2,66.2,55,29.92,10.0,ESE,8.1,-,N/A,,Clear,120,2012-06-26 14:15:00
9:35 AM,84.2,66.2,55,29.92,10.0,ESE,9.2,-,N/A,,Clear,120,2012-06-26 14:35:00
9:55 AM,86.0,66.2,51,29.93,10.0,SE,10.4,-,N/A,,Clear,140,2012-06-26 14:55:00
10:15 AM,87.8,66.2,49,29.92,10.0,SE,9.2,-,N/A,,Clear,130,2012-06-26 15:15:00
10:35 AM,87.8,68.0,52,29.92,10.0,ESE,9.2,-,N/A,,Clear,110,2012-06-26 15:35:00
10:55 AM,89.6,68.0,49,29.92,10.0,East,10.4,-,N/A,,Clear,100,2012-06-26 15:55:00
11:15 AM,89.6,68.0,49,29.92,10.0,SSE,5.8,-,N/A,,Clear,160,2012-06-26 16:15:00
11:35 AM,91.4,68.0,46,29.92,10.0,ESE,6.9,-,N/A,,Clear,110,2012-06-26 16:35:00
11:55 AM,91.4,68.0,46,29.91,10.0,East,5.8,-,N/A,,Clear,90,2012-06-26 16:55:00
12:15 PM,93.2,69.8,46,29.91,10.0,SE,5.8,-,N/A,,Clear,130,2012-06-26 17:15:00
12:35 PM,93.2,68.0,44,29.90,8.0,East,5.8,-,N/A,,Clear,80,2012-06-26 17:35:00
12:55 PM,95.0,68.0,41,29.90,10.0,South,4.6,-,N/A,,Clear,180,2012-06-26 17:55:00
1:15 PM,96.8,68.0,39,29.89,10.0,East,5.8,-,N/A,,Clear,100,2012-06-26 18:15:00
1:35 PM,96.8,66.2,37,29.89,10.0,Calm,Calm,-,N/A,,Clear,0,2012-06-26 18:35:00
1:55 PM,98.6,69.8,39,29.89,10.0,Calm,Calm,-,N/A,,Clear,0,2012-06-26 18:55:00
2:15 PM,96.8,68.0,39,29.88,10.0,NE,5.8,-,N/A,,Clear,50,2012-06-26 19:15:00
2:35 PM,96.8,68.0,39,29.87,10.0,NE,6.9,-,N/A,,Clear,50,2012-06-26 19:35:00
2:55 PM,98.6,66.2,35,29.87,10.0,NE,4.6,-,N/A,,Clear,50,2012-06-26 19:55:00
3:15 PM,98.6,66.2,35,29.87,10.0,ENE,6.9,-,N/A,,Clear,60,2012-06-26 20:15:00
3:35 PM,98.6,66.2,35,29.87,10.0,East,9.2,-,N/A,,Clear,100,2012-06-26 20:35:00
3:55 PM,98.6,66.2,35,29.87,10.0,NNE,5.8,-,N/A,,Clear,30,2012-06-26 20:55:00
4:15 PM,98.6,64.4,32,29.86,10.0,NE,6.9,-,N/A,,Clear,40,2012-06-26 21:15:00
4:35 PM,98.6,64.4,32,29.86,10.0,NNW,3.5,-,N/A,,Clear,330,2012-06-26 21:35:00
4:55 PM,100.4,64.4,31,29.85,10.0,ENE,6.9,-,N/A,,Clear,60,2012-06-26 21:55:00
5:15 PM,98.6,64.4,32,29.85,10.0,SSE,5.8,-,N/A,,Clear,160,2012-06-26 22:15:00
5:35 PM,98.6,64.4,32,29.84,10.0,East,6.9,-,N/A,,Clear,90,2012-06-26 22:35:00
5:55 PM,98.6,64.4,32,29.84,10.0,East,8.1,-,N/A,,Clear,90,2012-06-26 22:55:00
6:15 PM,98.6,64.4,32,29.84,10.0,East,8.1,-,N/A,,Clear,80,2012-06-26 23:15:00
6:35 PM,98.6,64.4,32,29.84,10.0,East,8.1,-,N/A,,Clear,80,2012-06-26 23:35:00
6:55 PM,96.8,64.4,34,29.83,10.0,East,10.4,-,N/A,,Clear,90,2012-06-26 23:55:00
7:15 PM,96.8,64.4,34,29.83,10.0,East,10.4,-,N/A,,Clear,90,2012-06-27 00:15:00
7:35 PM,95.0,64.4,36,29.83,10.0,East,9.2,-,N/A,,Clear,90,2012-06-27 00:35:00
7:55 PM,93.2,64.4,38,29.83,10.0,East,9.2,-,N/A,,Clear,90,2012-06-27 00:55:00
8:15 PM,93.2,64.4,38,29.84,10.0,East,8.1,-,N/A,,Clear,90,2012-06-27 01:15:00
8:35 PM,91.4,64.4,41,29.84,10.0,East,9.2,-,N/A,,Clear,100,2012-06-27 01:35:00
8:55 PM,91.4,62.6,38,29.84,10.0,East,9.2,-,N/A,,Clear,100,2012-06-27 01:55:00
9:15 PM,89.6,62.6,40,29.85,10.0,ESE,8.1,-,N/A,,Clear,120,2012-06-27 02:15:00
9:55 PM,87.8,62.6,43,29.86,10.0,SE,9.2,-,N/A,,Clear,130,2012-06-27 02:55:00
10:15 PM,86.0,62.6,45,29.87,10.0,SE,9.2,-,N/A,,Clear,130,2012-06-27 03:15:00
10:35 PM,84.2,62.6,48,29.88,10.0,SE,8.1,-,N/A,,Clear,130,2012-06-27 03:35:00
10:55 PM,84.2,62.6,48,29.88,9.0,SE,6.9,-,N/A,,Clear,130,2012-06-27 03:55:00
11:15 PM,84.2,60.8,45,29.88,10.0,SE,8.1,-,N/A,,Clear,130,2012-06-27 04:15:00
11:35 PM,82.4,62.6,51,29.89,10.0,SSE,6.9,-,N/A,,Clear,150,2012-06-27 04:35:00
11:55 PM,82.4,60.8,48,29.89,10.0,SE,8.1,-,N/A,,Clear,140,2012-06-27 04:55:00